EW9523 Weather Reports


Display with metric or nautical units.
time (UTC)temp
F
wind
direction
speed
MPH
gust
MPH
rain 1hr
in
rain 24hr
in
rain mn
in
humidity
%
barometer
mb
20260509030544 71 25 3.0 7.0 0.00 0.00 0.00 49 1013.9
20260509030022 73 271 2.0 7.0 0.00 0.00 0.00 47 1014.0
20260509024545 74 301 3.0 10.0 0.00 0.00 0.00 46 1013.9
20260509023540 75 295 4.0 10.0 0.00 0.00 0.00 45 1013.9
20260509022541 75 267 4.0 10.0 0.00 0.00 0.00 45 1013.7
20260509021540 76 298 6.0 12.0 0.00 0.00 0.00 45 1013.6
20260509021012 77 242 7.0 13.0 0.00 0.00 0.00 45 1013.6
20260509015539 77 251 7.0 13.0 0.00 0.00 0.00 44 1013.6
20260509014536 78 286 7.0 13.0 0.00 0.00 0.00 44 1013.6
20260509013536 79 266 7.0 14.0 0.00 0.00 0.00 42 1013.6
20260509013014 79 234 6.0 13.0 0.00 0.00 0.00 41 1013.8
20260509011532 80 287 7.0 13.0 0.00 0.00 0.00 41 1013.7
20260509010531 81 305 6.0 14.0 0.00 0.00 0.00 39 1013.7
20260509005530 81 286 7.0 14.0 0.00 0.00 0.00 39 1013.6
20260509004529 81 268 7.0 12.0 0.00 0.00 0.00 38 1013.7
20260509004007 82 257 6.0 12.0 0.00 0.00 0.00 37 1013.8
20260509002526 83 294 5.0 13.0 0.00 0.00 0.00 42 1013.8
20260509001527 83 261 5.0 11.0 0.00 0.00 0.00 40 1013.7
20260509000526 83 275 5.0 11.0 0.00 0.00 0.00 40 1013.8
20260508235526 83 280 4.0 12.0 0.00 0.00 0.00 42 1013.9
20260508234526 83 227 5.0 12.0 0.00 0.00 0.00 42 1013.9
20260508233521 83 284 6.0 11.0 0.00 0.00 0.00 43 1013.8
20260508232519 83 294 4.0 9.0 0.00 0.00 0.00 43 1014.1
20260508231520 84 261 3.0 9.0 0.00 0.00 0.00 42 1014.1
20260508230518 84 203 4.0 11.0 0.00 0.00 0.00 42 1014.3
20260508225516 83 206 4.0 12.0 0.00 0.00 0.00 41 1014.3
20260508224516 83 196 2.0 6.0 0.00 0.00 0.00 44 1014.5
20260508223509 83 186 3.0 10.0 0.00 0.00 0.00 51 1014.7
20260508222507 83 169 3.0 9.0 0.00 0.00 0.00 46 1014.6
20260508221507 82 180 3.0 11.0 0.00 0.00 0.00 53 1014.7
20260508220506 82 94 3.0 10.0 0.00 0.00 0.00 53 1014.7
20260508215506 82 231 3.0 10.0 0.00 0.00 0.00 53 1014.8
20260508214505 81 137 3.0 9.0 0.00 0.00 0.00 53 1014.9
20260508213505 81 87 2.0 6.0 0.00 0.00 0.00 51 1015.1
20260508212502 81 121 2.0 10.0 0.00 0.00 0.00 53 1015.3
20260508211502 80 222 2.0 7.0 0.00 0.00 0.00 53 1015.4
20260508210437 80 105 3.0 7.0 0.00 0.00 0.00 54 1015.4
20260508205424 80 140 3.0 9.0 0.00 0.00 0.00 52 1015.5
20260508204424 80 105 3.0 9.0 0.00 0.00 0.00 54 1015.5
20260508203425 79 90 2.0 5.0 0.00 0.00 0.00 55 1015.5
20260508202418 79 133 3.0 6.0 0.00 0.00 0.00 54 1015.6
20260508201416 79 171 3.0 6.0 0.00 0.00 0.00 56 1015.6
20260508200414 79 92 3.0 11.0 0.00 0.00 0.00 56 1015.7
20260508195412 78 340 2.0 7.0 0.00 0.00 0.00 46 1015.9
20260508194412 78 347 2.0 7.0 0.00 0.00 0.00 48 1015.9
20260508193413 77 344 2.0 7.0 0.00 0.00 0.00 49 1016.1
20260508192410 77 11 2.0 6.0 0.00 0.00 0.00 50 1016.2
20260508191409 76 26 3.0 8.0 0.00 0.00 0.00 53 1016.4
20260508190406 76 330 2.0 6.0 0.00 0.00 0.00 53 1016.4
20260508185406 74 260 4.0 9.0 0.00 0.00 0.00 53 1016.5
20260508184406 74 274 3.0 10.0 0.00 0.00 0.00 55 1016.6
20260508183407 73 321 4.0 9.0 0.00 0.00 0.00 58 1016.8
20260508182849 72 293 4.0 10.0 0.00 0.00 0.00 59 1016.9
20260508181405 71 318 3.0 10.0 0.00 0.00 0.00 62 1016.8
20260508180406 70 261 3.0 9.0 0.00 0.00 0.00 64 1016.9
20260508175406 69 249 4.0 10.0 0.00 0.00 0.00 64 1016.9
20260508174845 69 227 4.0 11.0 0.00 0.00 0.00 66 1017.0
20260508173404 67 316 4.0 12.0 0.00 0.00 0.00 67 1016.9
20260508172402 67 264 3.0 10.0 0.00 0.00 0.00 70 1016.9
20260508171400 65 345 3.0 7.0 0.00 0.00 0.00 71 1017.0
20260508170358 65 5 3.0 9.0 0.00 0.00 0.00 73 1017.2
20260508165359 63 310 3.0 7.0 0.00 0.00 0.00 74 1017.1
20260508164359 62 66 3.0 7.0 0.00 0.00 0.00 75 1017.0
20260508163351 62 342 3.0 7.0 0.00 0.00 0.00 75 1017.0
20260508162836 61 31 3.0 8.0 0.00 0.00 0.00 77 1017.0
20260508161824 60 13 4.0 8.0 0.00 0.00 0.00 77 1017.1
20260508160343 59 344 3.0 7.0 0.00 0.00 0.00 79 1017.0
20260508155340 58 0 4.0 10.0 0.00 0.00 0.00 80 1017.0
20260508154338 57 317 5.0 8.0 0.00 0.00 0.00 82 1017.0
20260508153338 56 12 4.0 10.0 0.00 0.00 0.00 83 1017.0
20260508152336 56 311 4.0 8.0 0.00 0.00 0.00 84 1016.9
20260508151333 55 5 4.0 10.0 0.00 0.00 0.00 85 1016.8
20260508150334 54 336 4.0 9.0 0.00 0.00 0.00 86 1016.8
20260508145332 53 323 3.0 7.0 0.00 0.00 0.00 87 1016.9
20260508144332 53 14 3.0 7.0 0.00 0.00 0.00 89 1016.9
20260508143333 52 355 3.0 9.0 0.00 0.00 0.00 90 1017.0
20260508142331 51 5 2.0 6.0 0.00 0.00 0.00 91 1016.8
20260508141329 51 31 2.0 5.0 0.00 0.00 0.00 93 1016.6
20260508140812 50 327 2.0 7.0 0.00 0.00 0.00 94 1016.6
20260508135328 50 342 1.0 4.0 0.00 0.00 0.00 95 1016.6
20260508134328 49 350 1.0 4.0 0.00 0.00 0.00 95 1016.5
20260508133326 49 355 1.0 4.0 0.00 0.00 0.00 95 1016.3
20260508132312 49 42 2.0 5.0 0.00 0.00 0.00 96 1016.3
20260508131312 48 327 0.0 0.0 0.00 0.00 0.00 95 1016.4
20260508130307 49 327 0.0 0.0 0.00 0.00 0.00 95 1016.2
20260508125743 49 327 0.0 0.0 0.00 0.00 0.00 95 1016.2
20260508124236 49 327 0.0 0.0 0.00 0.00 0.00 95 1016.2
20260508123209 50 327 1.0 3.0 0.00 0.00 0.00 95 1016.2
20260508122209 50 336 1.0 2.0 0.00 0.00 0.00 95 1016.2
20260508122136 50 344 1.0 2.0 0.00 0.00 0.00 95 1016.1
20260508120208 50 340 0.0 3.0 0.00 0.00 0.00 95 1016.1
20260508115201 50 271 0.0 0.0 0.00 0.00 0.00 95 1016.3
20260508114148 51 225 0.0 0.0 0.00 0.00 0.00 95 1016.3
20260508113145 51 225 0.0 0.0 0.00 0.00 0.00 95 1016.2
20260508112123 51 225 0.0 0.0 0.00 0.00 0.00 95 1016.2
20260508111107 51 225 0.0 1.0 0.00 0.00 0.00 95 1016.4
20260508110041 51 225 0.0 2.0 0.00 0.00 0.00 95 1016.5
20260508105500 52 225 0.0 0.0 0.00 0.00 0.00 95 1016.5
20260508103945 52 225 0.0 0.0 0.00 0.00 0.00 95 1016.6
20260508102945 52 225 0.0 1.0 0.00 0.00 0.00 95 1016.6
20260508101941 52 225 0.0 0.0 0.00 0.00 0.00 95 1016.4
20260508100929 52 225 0.0 2.0 0.00 0.00 0.00 95 1016.4
20260508095925 52 225 0.0 2.0 0.00 0.00 0.00 95 1016.3
20260508094902 52 225 0.0 0.0 0.00 0.00 0.00 95 1016.2
20260508093851 52 225 0.0 1.0 0.00 0.00 0.00 95 1016.2
20260508092830 52 225 1.0 2.0 0.00 0.00 0.00 95 1016.2
20260508091826 52 225 0.0 2.0 0.00 0.00 0.00 95 1016.1
20260508091314 52 210 0.0 2.0 0.00 0.00 0.00 95 1016.0
20260508085824 52 210 0.0 2.0 0.00 0.00 0.00 95 1016.1
20260508084821 52 115 0.0 0.0 0.00 0.00 0.00 95 1016.1
20260508084257 52 115 0.0 0.0 0.00 0.00 0.00 95 1016.1
20260508082820 52 115 0.0 0.0 0.00 0.00 0.00 94 1016.2
20260508081805 52 115 0.0 0.0 0.00 0.00 0.00 95 1016.2
20260508080805 51 115 0.0 0.0 0.00 0.00 0.00 94 1016.3
20260508075807 51 115 0.0 0.0 0.00 0.00 0.00 94 1016.3
20260508074752 51 115 0.0 0.0 0.00 0.00 0.00 93 1016.4
20260508073744 52 115 0.0 0.0 0.00 0.00 0.00 93 1016.3
20260508072734 52 115 0.0 0.0 0.00 0.00 0.00 93 1016.2
20260508071725 52 115 0.0 3.0 0.00 0.00 0.00 93 1016.2
20260508070724 52 146 0.0 0.0 0.00 0.00 0.00 93 1016.2
20260508065707 53 146 0.0 0.0 0.00 0.00 0.00 92 1016.1
20260508064707 53 146 0.0 0.0 0.00 0.00 0.00 92 1016.0
20260508063654 53 146 0.0 0.0 0.00 0.00 0.00 92 1016.1
20260508062640 54 146 0.0 2.0 0.00 0.00 0.00 92 1016.1
20260508061640 54 120 0.0 1.0 0.00 0.00 0.00 91 1016.1
20260508060641 55 133 0.0 2.0 0.00 0.00 0.00 91 1016.0
20260508055626 55 138 0.0 0.0 0.00 0.00 0.00 90 1016.1
20260508054624 56 138 0.0 0.0 0.00 0.00 0.00 90 1016.0
20260508053621 56 126 0.0 0.0 0.00 0.00 0.00 89 1016.0
20260508052618 57 126 0.0 3.0 0.00 0.00 0.00 89 1015.9
20260508051557 57 154 0.0 1.0 0.00 0.00 0.00 89 1015.8
20260508050556 58 132 0.0 1.0 0.00 0.00 0.00 88 1015.8
20260508045552 58 132 0.0 2.0 0.00 0.00 0.00 87 1015.7
20260508045023 59 115 0.0 3.0 0.00 0.00 0.00 87 1015.8
20260508043545 60 101 0.0 2.0 0.00 0.00 0.00 85 1015.8
20260508042544 60 113 0.0 3.0 0.00 0.00 0.00 85 1015.7
20260508041512 61 123 0.0 1.0 0.00 0.00 0.00 83 1015.5
20260508040505 62 127 1.0 3.0 0.00 0.00 0.00 82 1015.4
20260508035955 63 161 0.0 2.0 0.00 0.00 0.00 81 1015.3
20260508034458 64 149 0.0 2.0 0.00 0.00 0.00 80 1015.1
20260508033458 65 107 0.0 2.0 0.00 0.00 0.00 78 1015.1
20260508032940 66 193 1.0 4.0 0.00 0.00 0.00 76 1015.0
20260508031444 67 219 1.0 3.0 0.00 0.00 0.00 75 1014.9